RYR3PH LOWI-LOWW

Flight info

Callsign RYR3PH
Flight time N/A
Altitude 29000
Route RTT DCT NEMAL NEMAL2W
Aircraft B738/M-SDE2E3FGHIRWXY/LB1

Departure

Time 2026-05-06 19:37
Airport Innsbruck Airport (LOWI)

Arrival

Time N/A
Airport Vienna International Airport (LOWW)
Time Latitude Longitude Altitude Speed Heading
2026-05-06 18:54 47.25824 11.35050 1903 ft 0 kts 171°
2026-05-06 19:13 47.25843 11.35046 1891 ft 4 kts 171°
2026-05-06 19:13 47.25866 11.35041 1890 ft 4 kts 181°
2026-05-06 19:13 47.25883 11.35052 1891 ft 4 kts 257°
2026-05-06 19:13 47.25885 11.35091 1893 ft 4 kts 268°
2026-05-06 19:14 47.25886 11.35111 1896 ft 0 kts 261°
2026-05-06 19:17 47.25884 11.35094 1893 ft 3 kts 262°
2026-05-06 19:17 47.25881 11.35064 1894 ft 3 kts 261°
2026-05-06 19:17 47.25880 11.35054 1892 ft 0 kts 261°
2026-05-06 19:18 47.25877 11.35033 1895 ft 6 kts 261°
2026-05-06 19:18 47.25870 11.34963 1901 ft 7 kts 261°
2026-05-06 19:18 47.25861 11.34891 1898 ft 7 kts 261°
2026-05-06 19:18 47.25854 11.34821 1903 ft 7 kts 261°
2026-05-06 19:19 47.25846 11.34752 1894 ft 7 kts 260°
2026-05-06 19:19 47.25839 11.34685 1901 ft 7 kts 261°
2026-05-06 19:19 47.25832 11.34619 1900 ft 6 kts 261°
2026-05-06 19:19 47.25824 11.34554 1903 ft 6 kts 261°
2026-05-06 19:20 47.25817 11.34490 1900 ft 6 kts 261°
2026-05-06 19:20 47.25811 11.34428 1897 ft 6 kts 261°
2026-05-06 19:20 47.25806 11.34387 1891 ft 6 kts 261°
2026-05-06 19:20 47.25800 11.34327 1903 ft 6 kts 261°
2026-05-06 19:21 47.25793 11.34268 1903 ft 6 kts 261°
2026-05-06 19:21 47.25785 11.34191 1899 ft 6 kts 262°
2026-05-06 19:21 47.25779 11.34133 1892 ft 6 kts 258°
2026-05-06 19:21 47.25773 11.34077 1900 ft 6 kts 262°
2026-05-06 19:22 47.25771 11.34039 1903 ft 5 kts 268°
2026-05-06 19:22 47.25773 11.33996 1903 ft 0 kts 280°
2026-05-06 19:23 47.25773 11.33995 1903 ft 1 kts 281°
2026-05-06 19:23 47.25778 11.33969 1890 ft 4 kts 286°
2026-05-06 19:24 47.25787 11.33935 1898 ft 3 kts 295°
2026-05-06 19:24 47.25795 11.33912 1892 ft 2 kts 301°
2026-05-06 19:24 47.25796 11.33911 1892 ft 0 kts 301°
2026-05-06 19:33 47.25796 11.33910 1893 ft 1 kts 301°
2026-05-06 19:34 47.25821 11.33856 1891 ft 8 kts 305°
2026-05-06 19:34 47.25855 11.33789 1903 ft 8 kts 304°
2026-05-06 19:34 47.25886 11.33724 1903 ft 8 kts 307°
2026-05-06 19:34 47.25917 11.33661 1901 ft 7 kts 299°
2026-05-06 19:35 47.25929 11.33585 1900 ft 8 kts 271°
2026-05-06 19:35 47.25922 11.33494 1891 ft 10 kts 263°
2026-05-06 19:35 47.25910 11.33378 1899 ft 12 kts 261°
2026-05-06 19:35 47.25895 11.33270 1899 ft 10 kts 246°
2026-05-06 19:36 47.25863 11.33209 1897 ft 8 kts 227°
2026-05-06 19:36 47.25857 11.33131 1903 ft 6 kts 308°
2026-05-06 19:36 47.25882 11.33130 1903 ft 2 kts 51°
2026-05-06 19:36 47.25887 11.33157 1899 ft 0 kts 81°
2026-05-06 19:37 47.25903 11.33301 1903 ft 48 kts 81°
2026-05-06 19:37 47.25996 11.34171 1890 ft 122 kts 80°
2026-05-06 19:37 47.26193 11.35675 2052 ft 167 kts 82°
2026-05-06 19:37 47.26417 11.37364 2900 ft 170 kts 81°
2026-05-06 19:38 47.26628 11.39112 3699 ft 177 kts 80°
2026-05-06 19:38 47.26843 11.40934 4472 ft 183 kts 83°
2026-05-06 19:38 47.27069 11.42751 5426 ft 180 kts 83°
2026-05-06 19:38 47.27293 11.44634 6067 ft 195 kts 78°
2026-05-06 19:39 47.27634 11.46590 6848 ft 197 kts 76°
2026-05-06 19:39 47.28029 11.48564 7527 ft 205 kts 76°
2026-05-06 19:39 47.28438 11.50609 8191 ft 210 kts 76°
2026-05-06 19:39 47.28853 11.52671 8915 ft 210 kts 77°
2026-05-06 19:40 47.29264 11.54757 9520 ft 216 kts 77°
2026-05-06 19:40 47.29674 11.56911 10060 ft 221 kts 78°
2026-05-06 19:40 47.30086 11.59085 10608 ft 224 kts 78°
2026-05-06 19:40 47.30507 11.61319 11165 ft 228 kts 78°
2026-05-06 19:41 47.30934 11.63592 11714 ft 231 kts 78°
2026-05-06 19:41 47.31540 11.65828 12166 ft 244 kts 59°
2026-05-06 19:41 47.32577 11.67965 12356 ft 267 kts 55°
2026-05-06 19:41 47.33713 11.70261 12530 ft 288 kts 56°
2026-05-06 19:42 47.34917 11.72733 12793 ft 303 kts 56°
2026-05-06 19:42 47.36149 11.75301 13330 ft 308 kts 57°
2026-05-06 19:42 47.37386 11.77904 13838 ft 313 kts 56°
2026-05-06 19:42 47.38566 11.80573 14316 ft 313 kts 67°
2026-05-06 19:43 47.39209 11.83592 14936 ft 309 kts 80°
2026-05-06 19:43 47.39688 11.86737 15255 ft 324 kts 81°
2026-05-06 19:43 47.40176 11.90129 15395 ft 350 kts 81°
2026-05-06 19:43 47.40703 11.93760 15610 ft 373 kts 81°
2026-05-06 19:44 47.41270 11.97565 16136 ft 385 kts 81°
2026-05-06 19:44 47.41864 12.01446 16865 ft 389 kts 80°
2026-05-06 19:44 47.42471 12.05339 17652 ft 391 kts 80°
2026-05-06 19:44 47.43090 12.09282 18351 ft 395 kts 80°
2026-05-06 19:45 47.43720 12.13268 18906 ft 400 kts 80°
2026-05-06 19:45 47.44345 12.17236 19489 ft 404 kts 81°
2026-05-06 19:45 47.44990 12.21337 20114 ft 409 kts 81°
2026-05-06 19:45 47.45630 12.25419 20704 ft 414 kts 81°
2026-05-06 19:46 47.46283 12.29590 21283 ft 419 kts 81°
2026-05-06 19:46 47.46940 12.33796 21905 ft 422 kts 81°
2026-05-06 19:46 47.47603 12.38050 22486 ft 427 kts 81°
2026-05-06 19:46 47.48271 12.42354 23027 ft 432 kts 81°
2026-05-06 19:47 47.48945 12.46699 23582 ft 434 kts 81°
2026-05-06 19:47 47.49618 12.51044 24204 ft 432 kts 81°
2026-05-06 19:47 47.50287 12.55382 24754 ft 434 kts 81°
2026-05-06 19:47 47.50959 12.59754 25287 ft 436 kts 82°
2026-05-06 19:48 47.51631 12.64139 25815 ft 438 kts 82°
2026-05-06 19:48 47.52294 12.68482 26355 ft 438 kts 81°
2026-05-06 19:48 47.52962 12.72869 27036 ft 436 kts 82°
2026-05-06 19:48 47.53629 12.77252 27600 ft 437 kts 82°
2026-05-06 19:49 47.54297 12.81661 28127 ft 439 kts 82°
2026-05-06 19:49 47.54965 12.86071 28736 ft 438 kts 82°
2026-05-06 19:49 47.55630 12.90484 28881 ft 442 kts 82°
2026-05-06 19:49 47.56296 12.94914 28868 ft 440 kts 82°
2026-05-06 19:50 47.57584 13.03497 28869 ft 433 kts 82°
2026-05-06 19:50 47.58883 13.12199 28856 ft 432 kts 82°
2026-05-06 19:51 47.60174 13.20912 28858 ft 433 kts 82°
2026-05-06 19:51 47.61463 13.29666 28860 ft 436 kts 82°
2026-05-06 19:52 47.62752 13.38482 28836 ft 438 kts 82°
2026-05-06 19:52 47.64034 13.47291 28858 ft 438 kts 82°
2026-05-06 19:53 47.65311 13.56122 28823 ft 438 kts 82°
2026-05-06 19:53 47.66574 13.64895 28836 ft 437 kts 82°
2026-05-06 19:54 47.67818 13.73556 28835 ft 434 kts 82°
2026-05-06 19:54 47.69065 13.82342 28830 ft 435 kts 82°
2026-05-06 19:55 47.70300 13.91082 28608 ft 428 kts 82°
2026-05-06 19:55 47.70907 13.95385 28304 ft 423 kts 83°
2026-05-06 19:55 47.71509 13.99664 27832 ft 424 kts 83°
2026-05-06 19:56 47.72067 14.03650 27389 ft 423 kts 82°
2026-05-06 19:56 47.72664 14.07920 27015 ft 420 kts 82°
2026-05-06 19:56 47.73252 14.12152 26601 ft 419 kts 82°
2026-05-06 19:56 47.73840 14.16378 26150 ft 416 kts 82°
2026-05-06 19:57 47.74418 14.20560 25789 ft 412 kts 83°
2026-05-06 19:57 47.74994 14.24744 25326 ft 411 kts 82°
2026-05-06 19:57 47.75565 14.28902 24916 ft 410 kts 82°
2026-05-06 19:57 47.76132 14.33046 24504 ft 410 kts 83°
2026-05-06 19:58 47.76699 14.37193 24107 ft 409 kts 83°
2026-05-06 19:58 47.77256 14.41271 23702 ft 406 kts 83°
2026-05-06 19:58 47.77821 14.45434 23296 ft 405 kts 83°
2026-05-06 19:58 47.78369 14.49460 22923 ft 400 kts 82°
2026-05-06 19:59 47.78917 14.53488 22516 ft 394 kts 82°
2026-05-06 19:59 47.79452 14.57448 22133 ft 387 kts 82°
2026-05-06 19:59 47.79976 14.61340 21757 ft 381 kts 82°
2026-05-06 19:59 47.80490 14.65174 21377 ft 376 kts 83°
2026-05-06 20:00 47.80998 14.68975 21041 ft 374 kts 83°
2026-05-06 20:00 47.81501 14.72767 20671 ft 373 kts 82°
2026-05-06 20:00 47.81997 14.76501 20304 ft 369 kts 82°
2026-05-06 20:00 47.82493 14.80238 19964 ft 367 kts 83°
2026-05-06 20:01 47.82986 14.83958 19634 ft 365 kts 83°
2026-05-06 20:01 47.83474 14.87658 19293 ft 363 kts 83°
2026-05-06 20:01 47.83958 14.91332 18962 ft 361 kts 83°
2026-05-06 20:01 47.84441 14.95003 18617 ft 360 kts 82°
2026-05-06 20:02 47.84919 14.98647 18291 ft 358 kts 82°
2026-05-06 20:02 47.85378 15.02158 18066 ft 353 kts 82°
2026-05-06 20:02 47.85843 15.05724 17808 ft 349 kts 82°
2026-05-06 20:02 47.86302 15.09250 17529 ft 346 kts 83°
2026-05-06 20:03 47.86755 15.12754 17270 ft 343 kts 82°
2026-05-06 20:03 47.87203 15.16219 17006 ft 340 kts 82°
2026-05-06 20:03 47.87647 15.19667 16838 ft 338 kts 82°
2026-05-06 20:03 47.88086 15.23072 16775 ft 335 kts 83°
2026-05-06 20:04 47.88376 15.25329 16802 ft 338 kts 82°
2026-05-06 20:04 47.88821 15.28818 16797 ft 346 kts 82°
2026-05-06 20:04 47.89273 15.32355 16776 ft 347 kts 82°
2026-05-06 20:04 47.89541 15.35897 16698 ft 340 kts 95°
2026-05-06 20:05 47.89227 15.39337 16463 ft 333 kts 107°
2026-05-06 20:05 47.88747 15.42635 16129 ft 330 kts 108°
2026-05-06 20:05 47.88241 15.45971 15812 ft 330 kts 106°
2026-05-06 20:05 47.87742 15.49264 15777 ft 322 kts 108°
2026-05-06 20:06 47.87255 15.52498 15791 ft 320 kts 107°
2026-05-06 20:06 47.86768 15.55757 15721 ft 326 kts 108°
2026-05-06 20:06 47.86265 15.59123 15047 ft 341 kts 108°
2026-05-06 20:06 47.85738 15.62663 14438 ft 353 kts 105°
2026-05-06 20:07 47.85206 15.66250 14036 ft 357 kts 107°
2026-05-06 20:07 47.84672 15.69878 13902 ft 362 kts 105°
2026-05-06 20:07 47.84134 15.73550 13816 ft 367 kts 107°
2026-05-06 20:07 47.83597 15.77213 13785 ft 367 kts 106°
2026-05-06 20:08 47.83051 15.80903 13768 ft 364 kts 105°
2026-05-06 20:08 47.82510 15.84558 13772 ft 360 kts 106°
2026-05-06 20:08 47.81968 15.88213 13779 ft 362 kts 105°
2026-05-06 20:08 47.81423 15.91869 13775 ft 362 kts 105°
2026-05-06 20:09 47.80880 15.95514 13797 ft 359 kts 105°
2026-05-06 20:09 47.80337 15.99145 13777 ft 360 kts 105°
2026-05-06 20:09 47.79808 16.02662 13704 ft 363 kts 106°
2026-05-06 20:09 47.79258 16.06317 13582 ft 360 kts 106°
2026-05-06 20:10 47.78711 16.09944 13443 ft 359 kts 107°
2026-05-06 20:10 47.78163 16.13576 13312 ft 359 kts 105°
2026-05-06 20:10 47.77616 16.17194 13183 ft 358 kts 106°
2026-05-06 20:10 47.77069 16.20795 13034 ft 357 kts 106°
2026-05-06 20:11 47.76496 16.24372 12900 ft 353 kts 112°
2026-05-06 20:11 47.75388 16.27523 12803 ft 339 kts 134°
2026-05-06 20:11 47.73695 16.29853 12798 ft 328 kts 152°
2026-05-06 20:11 47.71650 16.31283 12791 ft 324 kts 168°
2026-05-06 20:12 47.69451 16.31742 12795 ft 317 kts 184°
2026-05-06 20:12 47.67304 16.31211 12791 ft 312 kts 200°
2026-05-06 20:12 47.65382 16.29753 12810 ft 311 kts 216°
2026-05-06 20:12 47.63837 16.27512 12802 ft 312 kts 232°
2026-05-06 20:13 47.62802 16.24681 12801 ft 315 kts 247°
2026-05-06 20:13 47.62278 16.21512 12734 ft 319 kts 261°
2026-05-06 20:13 47.62385 16.18208 12625 ft 324 kts 275°
2026-05-06 20:13 47.62845 16.14941 12494 ft 324 kts 278°
2026-05-06 20:14 47.63343 16.11681 12390 ft 323 kts 279°
2026-05-06 20:14 47.63817 16.08439 12301 ft 320 kts 278°
2026-05-06 20:14 47.64280 16.05224 12181 ft 318 kts 278°
2026-05-06 20:14 47.64948 16.02081 12044 ft 323 kts 294°
2026-05-06 20:15 47.66316 15.99405 11949 ft 331 kts 312°
2026-05-06 20:15 47.68202 15.97360 11857 ft 339 kts 328°
2026-05-06 20:15 47.70436 15.96208 11808 ft 343 kts 346°
2026-05-06 20:15 47.72840 15.96173 11802 ft 350 kts
2026-05-06 20:16 47.75132 15.97448 11808 ft 357 kts 31°
2026-05-06 20:16 47.77038 15.99773 11770 ft 365 kts 47°
2026-05-06 20:16 47.78389 16.02932 11594 ft 361 kts 70°
2026-05-06 20:16 47.78904 16.06545 11483 ft 356 kts 90°
2026-05-06 20:17 47.78730 16.10190 11383 ft 354 kts 96°
2026-05-06 20:17 47.79005 16.13832 11210 ft 358 kts 73°
2026-05-06 20:17 47.80031 16.17203 11086 ft 357 kts 62°
2026-05-06 20:17 47.81222 16.20386 11093 ft 347 kts 60°
2026-05-06 20:18 47.82405 16.23461 10982 ft 340 kts 60°
2026-05-06 20:18 47.83590 16.26476 10731 ft 336 kts 60°
2026-05-06 20:18 47.84788 16.29444 10463 ft 332 kts 60°
2026-05-06 20:18 47.85974 16.32372 10199 ft 330 kts 60°
2026-05-06 20:19 47.87157 16.35287 10052 ft 326 kts 60°
2026-05-06 20:19 47.88335 16.38190 10020 ft 329 kts 60°
2026-05-06 20:19 47.89513 16.41100 10018 ft 327 kts 60°
2026-05-06 20:19 47.90673 16.43976 10001 ft 320 kts 60°
2026-05-06 20:20 47.91816 16.46812 10001 ft 321 kts 60°
2026-05-06 20:20 47.92968 16.49676 10013 ft 323 kts 60°
2026-05-06 20:20 47.94122 16.52556 10008 ft 323 kts 60°
2026-05-06 20:20 47.95274 16.55434 10000 ft 324 kts 60°
2026-05-06 20:21 47.96430 16.58322 9995 ft 324 kts 60°
2026-05-06 20:21 47.97585 16.61211 9993 ft 324 kts 60°
2026-05-06 20:21 47.98773 16.64066 9997 ft 324 kts 52°
2026-05-06 20:21 48.00432 16.66279 10007 ft 321 kts 30°
2026-05-06 20:22 48.02380 16.67916 10001 ft 321 kts 26°
2026-05-06 20:22 48.04357 16.69456 10004 ft 321 kts 25°
2026-05-06 20:22 48.06345 16.70985 9958 ft 322 kts 25°
2026-05-06 20:22 48.08330 16.72507 9828 ft 321 kts 25°
2026-05-06 20:23 48.10328 16.74019 9697 ft 319 kts 25°
2026-05-06 20:23 48.12300 16.75511 9551 ft 317 kts 25°
2026-05-06 20:23 48.14263 16.76999 9411 ft 315 kts 25°
2026-05-06 20:23 48.16215 16.78475 9266 ft 314 kts 25°
2026-05-06 20:24 48.18153 16.79941 9120 ft 310 kts 25°
2026-05-06 20:24 48.20056 16.81381 8956 ft 303 kts 24°
2026-05-06 20:24 48.22052 16.82137 8690 ft 292 kts 353°
2026-05-06 20:24 48.23884 16.81253 8474 ft 269 kts 318°
2026-05-06 20:25 48.24994 16.79229 8287 ft 248 kts 292°
2026-05-06 20:25 48.25667 16.76920 8082 ft 237 kts 281°
2026-05-06 20:25 48.25938 16.74549 7874 ft 226 kts 266°
2026-05-06 20:25 48.25760 16.72270 7670 ft 216 kts 257°
2026-05-06 20:26 48.25830 16.70016 7438 ft 223 kts 285°
2026-05-06 20:26 48.26757 16.68094 7262 ft 238 kts 317°
2026-05-06 20:26 48.28319 16.67119 7068 ft 253 kts 349°
2026-05-06 20:26 48.30090 16.67392 6903 ft 261 kts 12°
2026-05-06 20:27 48.31763 16.68139 6743 ft 263 kts 15°
2026-05-06 20:27 48.33513 16.68955 6562 ft 262 kts 15°
2026-05-06 20:27 48.35241 16.69770 6361 ft 259 kts 15°
2026-05-06 20:27 48.36959 16.70577 6161 ft 257 kts 12°
2026-05-06 20:28 48.38708 16.70827 6036 ft 252 kts 354°
2026-05-06 20:28 48.40469 16.70773 6016 ft 255 kts 355°
2026-05-06 20:28 48.42242 16.70731 5993 ft 255 kts 355°
2026-05-06 20:28 48.44014 16.70693 5986 ft 253 kts 355°
2026-05-06 20:29 48.45728 16.70668 5971 ft 250 kts 355°
2026-05-06 20:29 48.47487 16.70649 5973 ft 248 kts 355°
2026-05-06 20:29 48.49207 16.70634 5973 ft 245 kts 355°
2026-05-06 20:29 48.50920 16.70614 5983 ft 248 kts 355°
2026-05-06 20:30 48.52659 16.70584 5995 ft 252 kts 356°
2026-05-06 20:30 48.56176 16.70487 5982 ft 252 kts 355°
2026-05-06 20:30 48.57925 16.70436 5983 ft 251 kts 355°
2026-05-06 20:31 48.59667 16.70383 5981 ft 250 kts 355°
2026-05-06 20:31 48.61406 16.70331 5995 ft 249 kts 355°
2026-05-06 20:31 48.63131 16.70275 5983 ft 247 kts 354°
2026-05-06 20:31 48.64790 16.69978 5965 ft 239 kts 335°
2026-05-06 20:32 48.66092 16.68591 5978 ft 225 kts 302°
2026-05-06 20:32 48.66682 16.66476 5991 ft 217 kts 278°
2026-05-06 20:32 48.66953 16.64214 5993 ft 219 kts 275°
2026-05-06 20:32 48.67177 16.61924 5901 ft 221 kts 268°
2026-05-06 20:33 48.66808 16.59757 5806 ft 211 kts 235°
2026-05-06 20:33 48.65732 16.58356 5690 ft 201 kts 209°
2026-05-06 20:33 48.64505 16.57509 5607 ft 187 kts 205°
2026-05-06 20:33 48.63270 16.56936 5496 ft 186 kts 196°
2026-05-06 20:34 48.62002 16.56509 5385 ft 186 kts 196°
2026-05-06 20:34 48.60760 16.56090 5327 ft 180 kts 197°
2026-05-06 20:34 48.59533 16.55663 5212 ft 181 kts 197°
2026-05-06 20:34 48.58299 16.55220 5109 ft 186 kts 197°
2026-05-06 20:35 48.57022 16.54752 5023 ft 190 kts 197°
2026-05-06 20:35 48.55746 16.54282 4982 ft 187 kts 197°
2026-05-06 20:35 48.54500 16.53818 4970 ft 183 kts 199°
2026-05-06 20:35 48.53259 16.53349 4984 ft 186 kts 199°
2026-05-06 20:36 48.51993 16.52866 4991 ft 189 kts 198°
2026-05-06 20:36 48.50721 16.52381 4980 ft 188 kts 198°
2026-05-06 20:36 48.49459 16.51898 4974 ft 186 kts 199°
2026-05-06 20:36 48.48203 16.51417 4973 ft 186 kts 198°
2026-05-06 20:37 48.46951 16.50936 4972 ft 186 kts 198°
2026-05-06 20:37 48.45699 16.50454 4988 ft 186 kts 198°
2026-05-06 20:37 48.44443 16.49969 4992 ft 187 kts 199°
2026-05-06 20:37 48.43183 16.49483 4986 ft 184 kts 198°
2026-05-06 20:38 48.41984 16.49024 4972 ft 171 kts 199°
2026-05-06 20:38 48.40851 16.48589 4976 ft 166 kts 199°
2026-05-06 20:38 48.39735 16.48159 4988 ft 165 kts 199°
2026-05-06 20:38 48.38625 16.47731 4988 ft 165 kts 199°
2026-05-06 20:39 48.37505 16.47315 4997 ft 167 kts 194°
2026-05-06 20:39 48.36337 16.47525 5018 ft 173 kts 165°
2026-05-06 20:39 48.35180 16.48058 5005 ft 174 kts 171°
2026-05-06 20:39 48.34007 16.48514 4999 ft 176 kts 171°
2026-05-06 20:40 48.32805 16.49001 4781 ft 178 kts 171°
2026-05-06 20:40 48.31621 16.49496 4538 ft 175 kts 171°
2026-05-06 20:40 48.30470 16.49982 4319 ft 169 kts 171°
2026-05-06 20:40 48.29354 16.50454 4106 ft 166 kts 171°
2026-05-06 20:41 48.28241 16.50924 3877 ft 166 kts 172°
2026-05-06 20:41 48.27165 16.51380 3662 ft 160 kts 172°
2026-05-06 20:41 48.26111 16.51829 3452 ft 151 kts 173°
2026-05-06 20:41 48.25135 16.52244 3265 ft 145 kts 173°
2026-05-06 20:42 48.24171 16.52650 3081 ft 143 kts 173°
2026-05-06 20:42 48.23226 16.53050 2906 ft 140 kts 173°
2026-05-06 20:42 48.22293 16.53445 2720 ft 138 kts 173°
2026-05-06 20:42 48.21407 16.53823 2530 ft 127 kts 174°
2026-05-06 20:43 48.20594 16.54167 2406 ft 119 kts 175°
2026-05-06 20:43 48.19810 16.54496 2235 ft 115 kts 175°
2026-05-06 20:43 48.19041 16.54820 2079 ft 115 kts 174°
2026-05-06 20:43 48.18266 16.55148 1917 ft 118 kts 173°
2026-05-06 20:44 48.17467 16.55487 1762 ft 120 kts 172°
2026-05-06 20:44 48.16667 16.55826 1606 ft 119 kts 172°
2026-05-06 20:44 48.15875 16.56162 1449 ft 121 kts 169°
2026-05-06 20:44 48.15056 16.56487 1365 ft 120 kts 166°
2026-05-06 20:45 48.14235 16.56871 1174 ft 127 kts 166°
2026-05-06 20:45 48.13661 16.57104 1005 ft 124 kts 166°
2026-05-06 20:45 48.12864 16.57447 809 ft 112 kts 168°
2026-05-06 20:45 48.12059 16.57680 1152 ft 120 kts 169°
2026-05-06 20:46 48.11271 16.57980 2056 ft 116 kts 172°
2026-05-06 20:46 48.10429 16.58370 2594 ft 146 kts 172°
2026-05-06 20:46 48.09261 16.58808 2751 ft 201 kts 172°
2026-05-06 20:46 48.07933 16.59610 3147 ft 196 kts 163°
2026-05-06 20:47 48.06760 16.60430 3534 ft 186 kts 164°
2026-05-06 20:47 48.05490 16.61277 3997 ft 212 kts 164°
2026-05-06 20:47 48.04090 16.62169 4413 ft 225 kts 163°
2026-05-06 20:47 48.02658 16.63164 4831 ft 228 kts 161°
2026-05-06 20:48 48.01351 16.64593 4976 ft 243 kts 135°
2026-05-06 20:48 48.00648 16.66942 5023 ft 259 kts 104°
2026-05-06 20:48 48.00800 16.69663 5031 ft 270 kts 73°
2026-05-06 20:48 48.01807 16.72014 5037 ft 271 kts 41°
2026-05-06 20:49 48.03416 16.73390 5028 ft 266 kts 12°
2026-05-06 20:49 48.05183 16.73981 5049 ft 263 kts
2026-05-06 20:49 48.06990 16.74471 5033 ft 264 kts
2026-05-06 20:49 48.08801 16.74934 5042 ft 264 kts
2026-05-06 20:50 48.10616 16.75369 5021 ft 264 kts
2026-05-06 20:50 48.12434 16.75541 5014 ft 259 kts 347°
2026-05-06 20:50 48.14198 16.75111 5026 ft 257 kts 345°
2026-05-06 20:50 48.15967 16.74674 5022 ft 258 kts 345°
2026-05-06 20:51 48.17740 16.74243 5031 ft 258 kts 345°
2026-05-06 20:51 48.19517 16.73816 5025 ft 258 kts 345°
2026-05-06 20:51 48.21289 16.73391 5028 ft 259 kts 345°
2026-05-06 20:51 48.23065 16.72965 5016 ft 259 kts 345°
2026-05-06 20:52 48.24846 16.72538 5005 ft 258 kts 345°
2026-05-06 20:52 48.26618 16.72114 5010 ft 257 kts 345°
2026-05-06 20:52 48.28386 16.71695 5010 ft 257 kts 345°
2026-05-06 20:52 48.30150 16.71283 5024 ft 256 kts 347°
2026-05-06 20:53 48.31910 16.70842 5012 ft 256 kts 345°
2026-05-06 20:53 48.33618 16.70195 4988 ft 249 kts 325°